ALOS-4 (DAICHI-4)

Last updated on Fri Dec 12 2025 00:02:32 GMT+0000 (Coordinated Universal Time)

1 60182U 24123A 25344.86865200 .00002905 00000+0 39567-3 0 9990 2 60182 97.9225 79.7424 0001419 101.2045 258.9326 14.79478132 78033
UTC large
Height (km)
Speed (km/s)
/
Latitude / Longitude
Inclination (degrees)
Orbital Period (minutes)
Azimuth
Elevation
Range (km)
Doppler Factor

Next 0 passes for location: London (51.5072 / 0.1276)

Sorry there are no passes over London.